This demonstration page uses our WeatherBlox Daily Observations layout. Learn more.

Left ArrowRight Arrow

38.80484, -77.04692

Hourly Observations for December 21, 2021

Temp ( °F °C ) Dew Point ( °F °C ) Humidity (%) Winds ( mph kmh ) Pressure ( in mb ) Visibility ( mi km ) Precip ( " mm )
12:52 am 00:52 Mostly Cloudy 34 1.1 24 -4.4 67 67 Calm 30.19 1023 10 16 0.00 0.00
1:52 am 01:52 Mostly Cloudy 32 0 23 -5 69 69 SW 3 6 30.19 1023 10 16 0.00 0.00
2:52 am 02:52 Mostly Cloudy 31 -0.6 23 -5 72 72 SSW 3 6 30.19 1023 10 16 0.00 0.00
3:52 am 03:52 Mostly Cloudy 30 -1.1 23 -5 75 75 SSW 5 7 30.17 1022 10 16 0.00 0.00
4:52 am 04:52 Cloudy 32 0 24 -4.4 73 73 Calm 30.15 1021 10 16 0.00 0.00
5:52 am 05:52 Cloudy 31 -0.6 23 -5 72 72 SW 3 6 30.14 1021 10 16 0.00 0.00
6:52 am 06:52 Cloudy 32 0 23 -5 69 69 SSW 5 7 30.16 1021 10 16 0.00 0.00
7:52 am 07:52 Cloudy 32 0 23 -5 69 69 SSW 8 13 30.17 1022 10 16 0.00 0.00
8:52 am 08:52 Cloudy 34 1.1 24 -4.4 67 67 Calm 30.16 1021 10 16 0.00 0.00
9:52 am 09:52 Cloudy 37 2.8 26 -3.3 65 65 Calm 30.15 1021 10 16 0.00 0.00
10:52 am 10:52 Cloudy 38 3.3 26 -3.3 62 62 Calm 30.15 1021 10 16 0.00 0.00
11:52 am 11:52 Cloudy 41 5 26 -3.3 55 55 NE 3 6 30.10 1019 10 16 0.00 0.00
12:52 pm 12:52 Cloudy 41 5 24 -4.4 51 51 NE 7 11 30.06 1018 10 16 0.00 0.00
1:52 pm 13:52 Cloudy 42 5.6 25 -3.9 51 51 NE 7 11 30.02 1017 10 16 0.00 0.00
2:52 pm 14:52 Cloudy 43 6.1 25 -3.9 49 49 NE 8 13 29.99 1016 10 16 0.00 0.00
3:52 pm 15:52 Cloudy 43 6.1 25 -3.9 49 49 ENE 8 13 29.97 1015 10 16 0.00 0.00
4:52 pm 16:52 Cloudy 43 6.1 24 -4.4 47 47 ENE 7 11 29.95 1014 10 16 0.00 0.00
5:52 pm 17:52 Cloudy 42 5.6 24 -4.4 49 49 E 6 9 29.95 1014 10 16 0.00 0.00
6:09 pm 18:09 Cloudy 42 5.6 25 -3.9 51 51 ESE 6 9 29.95 1014 10 16 0.00 0.00
6:52 pm 18:52 Cloudy with Light Rain 39 3.9 33 0.6 79 79 SE 7 11 29.95 1014 4 6 0.00 0.00
7:38 pm 19:38 Cloudy with Light Rain 38 3.3 34 1.1 86 86 Calm 29.95 1014 3 5 0.01 0.25
7:42 pm 19:42 Cloudy with Light Rain 38 3.3 34 1.1 86 86 NE 5 7 29.94 1014 3 4 0.01 0.25
7:52 pm 19:52 Cloudy with Light Rain 38 3.3 34 1.1 86 86 NNE 5 7 29.93 1014 3 4 0.02 0.51
7:54 pm 19:54 Cloudy with Light Rain 38 3.3 34 1.1 86 86 NE 5 7 29.93 1014 3 5 0.00 0.00
8:52 pm 20:52 Cloudy with Drizzle 38 3.3 34 1.1 86 86 NE 5 7 29.91 1013 6 10 0.00 0.00
9:52 pm 21:52 Cloudy with Mist and Fog 38 3.3 35 1.7 89 89 ENE 5 7 29.88 1012 3 4 0.01 0.25
9:55 pm 21:55 Cloudy with Mist and Fog 38 3.3 35 1.7 89 89 NE 5 7 29.88 1012 3 4 0.00 0.00
10:14 pm 22:14 Cloudy with Light Rain 38 3.3 35 1.7 89 89 NNE 5 7 29.87 1012 2 3 0.01 0.25
10:23 pm 22:23 Cloudy with Light Rain 37 2.8 35 1.7 93 93 NE 5 7 29.86 1011 2 3 0.02 0.51
10:33 pm 22:33 Cloudy with Light Rain 37 2.8 35 1.7 93 93 NE 3 6 29.86 1011 3 4 0.03 0.76
10:35 pm 22:35 Cloudy with Light Rain 37 2.8 35 1.7 93 93 NE 3 6 29.86 1011 3 5 0.03 0.76
10:39 pm 22:39 Cloudy with Drizzle 37 2.8 35 1.7 93 93 NE 3 6 29.86 1011 4 6 0.03 0.76
10:52 pm 22:52 Cloudy with Drizzle 38 3.3 35 1.7 89 89 Calm 29.85 1011 3 4 0.03 0.76
11:08 pm 23:08 Cloudy with Mist and Fog 38 3.3 35 1.7 89 89 NE 5 7 29.84 1011 3 5 0.01 0.25
11:21 pm 23:21 Cloudy with Light Rain 38 3.3 35 1.7 89 89 N 5 7 29.83 1010 3 4 0.01 0.25
11:30 pm 23:30 Cloudy with Mist and Fog 38 3.3 35 1.7 89 89 N 5 7 29.83 1010 3 5 0.01 0.25
11:50 pm 23:50 Cloudy with Light Rain 37 3 36 2 93 93 N 3 6 29.81 1010 2 3 0.01 0.25
11:52 pm 23:52 Cloudy with Light Rain 38 3.3 35 1.7 89 89 N 3 6 29.80 1009 2 3 0.01 0.25

Powered by AerisWeather